When you browse on this site, cookies collect data to enhance your experience and personalize the content and advertising you see.
Visit our Privacy Policy to learn more. By continuing to use the site, you agree to this use of cookies and data.
  • Em Portugal
  • Lista de países
  • Para 7 dias
  • Temperatura da água
  • Mapa do tempo
  • Widgets de tempo
  • user-avatar
    Iniciar Sessão

    Previsão horária em Río Gallegos

    Hoje, 16 Outubro, Quarta-feira

    Tempo Temperatura Precipitação Vento Pressão Humidade
    00:00 +6°C° 0 mm 5 m/s 763 mmHg 61%
    01:00 +6°C° 0 mm 4 m/s 762 mmHg 61%
    02:00 +6°C° 0 mm 4 m/s 762 mmHg 61%
    03:00 +6°C° 0 mm 5 m/s 762 mmHg 61%
    04:00 +6°C° 0 mm 5 m/s 762 mmHg 61%
    05:00 +7°C° 0 mm 5 m/s 761 mmHg 60%
    06:00 +8°C° 0 mm 6 m/s 761 mmHg 60%
    07:00 +9°C° 0 mm 6 m/s 761 mmHg 59%
    08:00 +10°C° 0 mm 7 m/s 761 mmHg 56%
    09:00 +11°C° 0 mm 7 m/s 760 mmHg 52%
    10:00 +13°C° 0 mm 8 m/s 760 mmHg 49%
    11:00 +13°C° 0 mm 8 m/s 759 mmHg 50%
    12:00 +13°C° 0 mm 8 m/s 758 mmHg 52%
    13:00 +13°C° 0 mm 9 m/s 758 mmHg 53%
    14:00 +12°C° 0 mm 9 m/s 757 mmHg 57%
    15:00 +11°C° 0 mm 9 m/s 757 mmHg 60%
    16:00 +11°C° 0 mm 9 m/s 756 mmHg 64%
    17:00 +10°C° 0 mm 8 m/s 756 mmHg 67%
    18:00 +9°C° 0 mm 8 m/s 756 mmHg 70%
    19:00 +9°C° 0 mm 8 m/s 756 mmHg 73%
    20:00 +8°C° 0 mm 7 m/s 756 mmHg 75%
    21:00 +8°C° 0 mm 6 m/s 755 mmHg 76%
    22:00 +8°C° 0 mm 5 m/s 755 mmHg 78%
    23:00 +8°C° 0.2 mm 5 m/s 755 mmHg 79%

    Amanhã, 17 Outubro, Quinta-feira

    Tempo Temperatura Precipitação Vento Pressão Humidade
    00:00 +8°C° 0.2 mm 4 m/s 754 mmHg 80%
    01:00 +9°C° 0.2 mm 3 m/s 754 mmHg 81%
    02:00 +9°C° 0.3 mm 3 m/s 754 mmHg 78%
    03:00 +8°C° 0.3 mm 2 m/s 754 mmHg 75%
    04:00 +8°C° 0.3 mm 2 m/s 754 mmHg 73%
    05:00 +9°C° 0 mm 3 m/s 754 mmHg 69%
    06:00 +8°C° 0 mm 4 m/s 754 mmHg 66%
    07:00 +9°C° 0 mm 5 m/s 754 mmHg 62%
    08:00 +10°C° 0 mm 7 m/s 754 mmHg 62%
    09:00 +10°C° 0 mm 8 m/s 755 mmHg 61%
    10:00 +10°C° 0 mm 9 m/s 755 mmHg 60%
    11:00 +11°C° 0 mm 10 m/s 755 mmHg 53%
    12:00 +12°C° 0 mm 11 m/s 755 mmHg 46%
    13:00 +12°C° 0 mm 13 m/s 756 mmHg 38%
    14:00 +12°C° 0 mm 12 m/s 756 mmHg 39%
    15:00 +10°C° 0 mm 12 m/s 756 mmHg 39%
    16:00 +11°C° 0 mm 11 m/s 756 mmHg 39%
    17:00 +10°C° 0 mm 9 m/s 756 mmHg 43%
    18:00 +9°C° 0 mm 7 m/s 757 mmHg 47%
    19:00 +8°C° 0 mm 5 m/s 757 mmHg 51%
    20:00 +8°C° 0 mm 5 m/s 757 mmHg 53%
    21:00 +8°C° 0 mm 4 m/s 757 mmHg 55%
    22:00 +8°C° 0 mm 4 m/s 757 mmHg 57%
    23:00 +8°C° 0.2 mm 5 m/s 757 mmHg 60%

    Depois de amanhã, 18 Outubro, Sexta-feira

    Tempo Temperatura Precipitação Vento Pressão Humidade
    00:00 +8°C° 0.2 mm 6 m/s 756 mmHg 62%
    01:00 +8°C° 0.2 mm 7 m/s 756 mmHg 65%
    02:00 +6°C° 0 mm 8 m/s 757 mmHg 69%
    03:00 +5°C° 0 mm 9 m/s 757 mmHg 73%
    04:00 +3°C° 0 mm 9 m/s 758 mmHg 77%
    05:00 +5°C° 0 mm 8 m/s 759 mmHg 73%
    06:00 +5°C° 0 mm 7 m/s 759 mmHg 69%
    07:00 +7°C° 0 mm 6 m/s 759 mmHg 65%
    08:00 +8°C° 0 mm 5 m/s 760 mmHg 65%
    09:00 +8°C° 0 mm 5 m/s 760 mmHg 66%
    10:00 +9°C° 0 mm 5 m/s 760 mmHg 66%
    11:00 +10°C° 0 mm 5 m/s 760 mmHg 60%
    12:00 +13°C° 0 mm 6 m/s 759 mmHg 54%
    13:00 +15°C° 0 mm 7 m/s 759 mmHg 48%
    14:00 +15°C° 0 mm 6 m/s 758 mmHg 48%
    15:00 +15°C° 0 mm 6 m/s 758 mmHg 48%
    16:00 +16°C° 0 mm 5 m/s 758 mmHg 48%
    17:00 +15°C° 0 mm 5 m/s 758 mmHg 50%
    18:00 +14°C° 0 mm 4 m/s 757 mmHg 52%
    19:00 +13°C° 0 mm 4 m/s 757 mmHg 54%
    20:00 +13°C° 0 mm 4 m/s 757 mmHg 55%
    21:00 +12°C° 0 mm 5 m/s 757 mmHg 56%
    22:00 +12°C° 0 mm 5 m/s 757 mmHg 58%
    23:00 +11°C° 0 mm 6 m/s 756 mmHg 58%

    19 Outubro, Sábado

    Tempo Temperatura Precipitação Vento Pressão Humidade
    00:00 +11°C° 0 mm 6 m/s 756 mmHg 58%
    01:00 +11°C° 0 mm 6 m/s 755 mmHg 59%
    02:00 +11°C° 0 mm 6 m/s 755 mmHg 59%
    03:00 +10°C° 0 mm 5 m/s 755 mmHg 59%
    04:00 +10°C° 0 mm 5 m/s 754 mmHg 59%
    05:00 +12°C° 0 mm 5 m/s 754 mmHg 57%
    06:00 +12°C° 0 mm 5 m/s 754 mmHg 55%
    07:00 +13°C° 0 mm 5 m/s 754 mmHg 54%
    08:00 +14°C° 0 mm 5 m/s 754 mmHg 48%
    09:00 +16°C° 0 mm 5 m/s 754 mmHg 43%
    10:00 +17°C° 0 mm 5 m/s 754 mmHg 38%
    11:00 +19°C° 0 mm 6 m/s 753 mmHg 36%
    12:00 +18°C° 0 mm 7 m/s 753 mmHg 34%
    13:00 +20°C° 0 mm 7 m/s 752 mmHg 32%
    14:00 +20°C° 0 mm 7 m/s 752 mmHg 33%
    15:00 +19°C° 0 mm 6 m/s 752 mmHg 34%
    16:00 +19°C° 0 mm 5 m/s 751 mmHg 35%
    17:00 +18°C° 0 mm 4 m/s 751 mmHg 35%
    18:00 +17°C° 0 mm 4 m/s 751 mmHg 35%
    19:00 +16°C° 0 mm 3 m/s 751 mmHg 35%
    20:00 +15°C° 0 mm 4 m/s 751 mmHg 35%
    21:00 +15°C° 0 mm 4 m/s 750 mmHg 34%
    22:00 +15°C° 0 mm 5 m/s 750 mmHg 34%
    23:00 +14°C° 0 mm 5 m/s 750 mmHg 33%

    20 Outubro, Domingo

    Tempo Temperatura Precipitação Vento Pressão Humidade
    00:00 +13°C° 0 mm 5 m/s 749 mmHg 33%
    01:00 +13°C° 0 mm 6 m/s 749 mmHg 32%
    02:00 +13°C° 0 mm 5 m/s 748 mmHg 31%
    03:00 +13°C° 0 mm 5 m/s 748 mmHg 30%
    04:00 +13°C° 0 mm 5 m/s 748 mmHg 30%
    05:00 +13°C° 0 mm 4 m/s 748 mmHg 32%
    06:00 +13°C° 0 mm 4 m/s 748 mmHg 35%
    07:00 +14°C° 0 mm 3 m/s 748 mmHg 38%
    08:00 +15°C° 0 mm 4 m/s 748 mmHg 34%
    09:00 +16°C° 0 mm 5 m/s 748 mmHg 29%
    10:00 +17°C° 0 mm 6 m/s 748 mmHg 25%
    11:00 +17°C° 0 mm 5 m/s 748 mmHg 25%
    12:00 +19°C° 0 mm 5 m/s 748 mmHg 25%
    13:00 +19°C° 0 mm 4 m/s 748 mmHg 25%
    14:00 +16°C° 0 mm 6 m/s 748 mmHg 34%
    15:00 +13°C° 0 mm 8 m/s 748 mmHg 43%
    16:00 +12°C° 0 mm 10 m/s 748 mmHg 52%
    17:00 +10°C° 0 mm 9 m/s 749 mmHg 51%
    18:00 +8°C° 0 mm 9 m/s 749 mmHg 50%
    19:00 +7°C° 0 mm 8 m/s 750 mmHg 49%
    20:00 +6°C° 0 mm 9 m/s 751 mmHg 52%
    21:00 +5°C° 0 mm 10 m/s 751 mmHg 55%
    22:00 +3°C° 0 mm 11 m/s 752 mmHg 59%
    23:00 +3°C° 0 mm 10 m/s 753 mmHg 57%

    21 Outubro, Segunda-feira

    Tempo Temperatura Precipitação Vento Pressão Humidade
    00:00 +3°C° 0 mm 9 m/s 753 mmHg 55%
    01:00 +4°C° 0 mm 8 m/s 754 mmHg 53%
    02:00 +2°C° 0 mm 8 m/s 754 mmHg 55%
    03:00 +2°C° 0 mm 8 m/s 754 mmHg 57%
    04:00 +3°C° 0 mm 7 m/s 755 mmHg 59%
    05:00 +2°C° 0 mm 8 m/s 755 mmHg 56%
    06:00 +3°C° 0 mm 9 m/s 756 mmHg 54%
    07:00 +5°C° 0 mm 10 m/s 756 mmHg 51%
    08:00 +6°C° 0 mm 10 m/s 756 mmHg 47%
    09:00 +7°C° 0 mm 11 m/s 757 mmHg 43%
    10:00 +8°C° 0 mm 11 m/s 757 mmHg 39%
    11:00 +8°C° 0 mm 10 m/s 757 mmHg 38%
    12:00 +10°C° 0 mm 9 m/s 757 mmHg 37%
    13:00 +11°C° 0 mm 8 m/s 757 mmHg 36%
    14:00 +11°C° 0 mm 8 m/s 757 mmHg 35%
    15:00 +11°C° 0 mm 7 m/s 757 mmHg 35%
    16:00 +11°C° 0 mm 7 m/s 757 mmHg 34%
    17:00 +10°C° 0 mm 5 m/s 757 mmHg 38%
    18:00 +10°C° 0 mm 4 m/s 757 mmHg 43%
    19:00 +9°C° 0 mm 3 m/s 757 mmHg 47%
    20:00 +8°C° 0 mm 4 m/s 757 mmHg 45%
    21:00 +8°C° 0 mm 5 m/s 757 mmHg 43%
    22:00 +8°C° 0 mm 6 m/s 757 mmHg 42%
    23:00 +8°C° 0 mm 6 m/s 757 mmHg 43%
    Mostrar mais